FW2969 Weather Reports


time (UTC)temp
C
wind
direction
speed
KPH
gust
KPH
rain 1hr
cm
rain 24hr
cm
rain mn
cm
humidity
%
barometer
mb
20260901040018 17 28 0.0 0.0 0.00 0.03 0.03 95 1009.5
20260901034516 17 28 0.0 0.0 0.00 0.03 0.03 96 1009.3
20260901033029 18 28 0.0 1.6 0.00 0.03 0.03 96 1009.3
20260901031521 18 28 0.0 0.0 0.00 0.03 0.03 96 1009.3
20260901030013 18 28 0.0 0.0 0.00 0.03 0.03 96 1009.2
20260901024513 18 28 0.0 0.0 0.00 0.03 0.03 96 1009.2
20260901023011 18 28 0.0 0.0 0.00 0.03 0.03 96 1009.2
20260901021514 18 28 0.0 0.0 0.00 0.03 0.03 96 1009.2
20260901020009 18 28 0.0 3.2 0.00 0.03 0.03 96 1009.1
20260901014509 18 15 0.0 0.0 0.00 0.03 0.03 95 1009.1
20260901013008 18 16 0.0 1.6 0.00 0.03 0.03 96 1009.2
20260901011511 18 16 0.0 3.2 0.00 0.03 0.03 95 1009.2
20260901010015 18 18 0.0 1.6 0.03 0.03 0.03 96 1009.2
20260901004503 18 356 0.0 3.2 0.03 0.03 0.03 96 1009.3
20260901003003 18 12 0.0 3.2 0.03 0.03 0.03 95 1009.4
20260901001503 18 348 0.0 3.2 0.03 0.03 0.03 96 1009.4
20260901000001 18 292 0.0 1.6 0.00 0.00 0.00 95 1009.6
20260831234601 18 290 0.0 0.0 0.00 0.00 0.00 95 1009.5
20260831233059 18 290 0.0 0.0 0.00 0.00 0.00 95 1009.4
20260831231612 18 290 0.0 0.0 0.00 0.00 0.00 95 1009.4
20260831230058 18 290 0.0 0.0 0.00 0.00 0.00 95 1009.5
20260831224556 18 290 0.0 0.0 0.00 0.00 0.00 95 1009.6
20260831223101 18 290 0.0 0.0 0.00 0.00 0.00 95 1009.7
20260831221553 18 290 0.0 0.0 0.00 0.00 0.00 94 1009.7
20260831220053 19 290 0.0 1.6 0.00 0.00 0.00 95 1009.8
20260831214550 19 290 0.0 0.0 0.00 0.00 0.00 95 1009.9
20260831213050 18 290 0.0 0.0 0.00 0.00 0.00 95 1009.8
20260831211600 18 290 0.0 0.0 0.00 0.00 0.00 94 1009.9
20260831210046 19 290 0.0 0.0 0.00 0.00 0.00 94 1010.0
20260831204546 19 290 0.0 0.0 0.00 0.00 0.00 94 1010.0
20260831203045 19 290 0.0 0.0 0.00 0.00 0.00 94 1010.2
20260831201555 19 290 0.0 0.0 0.00 0.00 0.00 94 1010.0
20260831200045 19 290 0.0 0.0 0.00 0.00 0.00 94 1010.1
20260831194628 19 290 0.0 0.0 0.00 0.00 0.00 93 1010.0
20260831193044 20 290 0.0 0.0 0.00 0.00 0.00 94 1010.1
20260831191542 20 290 0.0 1.6 0.00 0.00 0.00 93 1010.2
20260831190047 20 290 0.0 0.0 0.00 0.00 0.00 93 1010.2
20260831184552 20 290 0.0 0.0 0.00 0.00 0.00 93 1010.2
20260831183042 20 290 0.0 0.0 0.00 0.00 0.00 93 1010.2
20260831181547 20 290 0.0 0.0 0.00 0.00 0.00 93 1010.2
20260831180039 20 290 0.0 1.6 0.00 0.00 0.00 92 1010.3
20260831174543 20 290 0.0 0.0 0.00 0.00 0.00 92 1010.2
20260831173038 20 290 0.0 1.6 0.00 0.00 0.00 92 1010.1
20260831171544 20 290 0.0 0.0 0.00 0.00 0.00 91 1010.0
20260831170036 21 290 0.0 1.6 0.00 0.00 0.00 91 1009.9
20260831164536 21 290 0.0 3.2 0.00 0.00 0.00 91 1009.8
20260831163039 21 289 0.0 1.6 0.00 0.00 0.00 90 1009.8
20260831161535 21 289 0.0 1.6 0.00 0.00 0.00 89 1009.7
20260831160037 21 288 0.0 3.2 0.00 0.00 0.00 88 1009.5
20260831154537 21 267 0.0 4.8 0.00 0.00 0.00 87 1009.6
20260831153037 22 222 0.0 4.8 0.00 0.00 0.00 85 1009.5
20260831151531 22 286 0.0 4.8 0.00 0.00 0.00 83 1009.5
20260831150030 23 280 3.2 8.0 0.00 0.00 0.00 79 1009.4
20260831144528 23 298 1.6 9.7 0.00 0.00 0.00 78 1009.4
20260831143027 23 309 1.6 9.7 0.00 0.00 0.00 76 1009.4
20260831141526 23 267 1.6 9.7 0.00 0.00 0.00 76 1009.4
20260831140025 23 290 1.6 8.0 0.00 0.00 0.00 77 1009.4
20260831134623 23 293 4.8 14.5 0.00 0.00 0.00 76 1009.3
20260831133022 23 301 1.6 11.3 0.00 0.00 0.00 76 1009.3
20260831131522 23 325 1.6 17.7 0.00 0.00 0.00 74 1009.3
20260831130023 23 308 4.8 19.3 0.00 0.00 0.00 75 1009.3
20260831124520 23 302 4.8 17.7 0.00 0.00 0.00 75 1009.3
20260831123018 23 301 6.4 17.7 0.00 0.00 0.00 74 1009.4
20260831121520 24 319 3.2 14.5 0.00 0.00 0.00 73 1009.4
20260831120018 24 309 3.2 17.7 0.00 0.00 0.00 71 1009.4
20260831114522 23 224 3.2 16.1 0.00 0.00 0.00 70 1009.4
20260831113015 24 233 6.4 16.1 0.00 0.00 0.00 67 1009.4
20260831111513 24 271 3.2 11.3 0.00 0.00 0.00 69 1009.6
20260831110017 23 264 4.8 17.7 0.00 0.00 0.00 69 1009.5
20260831104525 23 299 4.8 14.5 0.00 0.00 0.00 72 1009.6
20260831103009 23 236 4.8 17.7 0.00 0.00 0.00 71 1009.7
20260831101508 24 277 3.2 17.7 0.00 0.00 0.00 69 1009.8
20260831100006 23 209 6.4 16.1 0.00 0.00 0.00 69 1009.8
20260831094507 23 284 3.2 19.3 0.00 0.00 0.00 65 1009.8
20260831093014 24 276 3.2 19.3 0.00 0.00 0.00 64 1010.0
20260831091505 23 280 3.2 12.9 0.00 0.00 0.00 66 1010.0
20260831090003 23 319 6.4 14.5 0.00 0.00 0.00 64 1010.0
20260831084502 24 280 3.2 17.7 0.00 0.00 0.00 63 1010.0
20260831083001 25 316 4.8 16.1 0.00 0.00 0.00 60 1010.1
20260831081601 25 263 1.6 12.9 0.00 0.00 0.00 55 1010.1
20260831080115 24 305 3.2 9.7 0.00 0.00 0.00 55 1010.1
20260831074604 23 314 3.2 14.5 0.00 0.00 0.00 55 1010.1
20260831073054 23 268 3.2 9.7 0.00 0.00 0.00 54 1010.1
20260831071605 23 302 3.2 9.7 0.00 0.00 0.00 55 1010.0
20260831070053 23 307 1.6 9.7 0.00 0.00 0.00 54 1010.0
20260831064551 23 255 0.0 6.4 0.00 0.00 0.00 54 1010.0
20260831063050 23 326 0.0 3.2 0.00 0.00 0.00 55 1009.9
20260831061549 23 304 0.0 3.2 0.00 0.00 0.00 55 1009.9
20260831060059 23 88 0.0 0.0 0.00 0.00 0.00 56 1009.8
20260831054545 23 88 0.0 3.2 0.00 0.00 0.00 56 1009.8
20260831053048 22 90 0.0 0.0 0.00 0.00 0.00 58 1009.7
20260831051542 22 90 0.0 0.0 0.00 0.00 0.00 63 1009.6
20260831050038 21 90 0.0 1.6 0.00 0.00 0.00 69 1009.5
20260831044532 20 90 0.0 0.0 0.00 0.00 0.00 74 1009.5
20260831043035 19 90 0.0 1.6 0.00 0.00 0.00 76 1009.4
20260831041524 18 90 0.0 1.6 0.00 0.00 0.00 77 1009.3